When you browse on this site, cookies collect data to enhance your experience and personalize the content and advertising you see.
Visit our Privacy Policy to learn more. By continuing to use the site, you agree to this use of cookies and data.
  • In Portugal
  • List of Countries
  • For 7 days
  • Water Temperature
  • Weather Map
  • Weather Widgets
  • user-avatar
    Login

    Hourly Weather Starosele

    Today, 12 December, Thursday

    Time Temperature Precipitation Wind Pressure Humidity
    00:00 -2°C° 0 mm 2 mps 749 mmHg 91%
    01:00 -2°C° 0 mm 2 mps 749 mmHg 93%
    02:00 -2°C° 0 mm 3 mps 749 mmHg 94%
    03:00 -2°C° 0 mm 3 mps 748 mmHg 92%
    04:00 -2°C° 0 mm 3 mps 748 mmHg 89%
    05:00 -3°C° 0 mm 4 mps 747 mmHg 87%
    06:00 -3°C° 0 mm 4 mps 747 mmHg 86%
    07:00 -3°C° 0 mm 4 mps 747 mmHg 84%
    08:00 -4°C° 0 mm 5 mps 747 mmHg 83%
    09:00 -2°C° 0 mm 5 mps 747 mmHg 86%
    10:00 -1°C° 0 mm 5 mps 746 mmHg 88%
    11:00 -1°C° 0 mm 6 mps 746 mmHg 91%
    12:00 -1°C° 0 mm 6 mps 745 mmHg 89%
    13:00 -1°C° 0 mm 6 mps 745 mmHg 88%
    14:00 +1°C° 0 mm 6 mps 745 mmHg 87%
    15:00 +1°C° 0 mm 6 mps 745 mmHg 87%
    16:00 +1°C° 0 mm 6 mps 744 mmHg 87%
    17:00 +1°C° 0 mm 6 mps 744 mmHg 87%
    18:00 +1°C° 0 mm 6 mps 744 mmHg 88%
    19:00 +1°C° 0 mm 6 mps 744 mmHg 88%
    20:00 0°C° 0 mm 5 mps 744 mmHg 88%
    21:00 0°C° 0 mm 5 mps 744 mmHg 89%
    22:00 0°C° 0 mm 5 mps 744 mmHg 89%
    23:00 0°C° 0 mm 5 mps 743 mmHg 89%

    Tomorrow, 13 December, Friday

    Time Temperature Precipitation Wind Pressure Humidity
    00:00 0°C° 0 mm 5 mps 743 mmHg 89%
    01:00 0°C° 0 mm 5 mps 743 mmHg 89%
    02:00 -1°C° 0 mm 5 mps 743 mmHg 90%
    03:00 -1°C° 0 mm 5 mps 743 mmHg 90%
    04:00 -1°C° 0 mm 5 mps 742 mmHg 90%
    05:00 -1°C° 0 mm 5 mps 742 mmHg 90%
    06:00 -1°C° 0 mm 5 mps 742 mmHg 89%
    07:00 -1°C° 0 mm 5 mps 741 mmHg 89%
    08:00 -1°C° 0 mm 5 mps 741 mmHg 88%
    09:00 -1°C° 0 mm 5 mps 741 mmHg 87%
    10:00 -1°C° 0 mm 5 mps 741 mmHg 87%
    11:00 -2°C° 0 mm 6 mps 741 mmHg 86%
    12:00 -2°C° 0 mm 6 mps 740 mmHg 86%
    13:00 -2°C° 0 mm 6 mps 740 mmHg 86%
    14:00 -2°C° 0 mm 6 mps 740 mmHg 86%
    15:00 -2°C° 0 mm 6 mps 740 mmHg 85%
    16:00 -2°C° 0 mm 6 mps 739 mmHg 85%
    17:00 -2°C° 0 mm 6 mps 739 mmHg 84%
    18:00 -2°C° 0 mm 6 mps 739 mmHg 84%
    19:00 -2°C° 0 mm 6 mps 739 mmHg 84%
    20:00 -1°C° 0 mm 5 mps 740 mmHg 83%
    21:00 -1°C° 0 mm 5 mps 739 mmHg 83%
    22:00 -1°C° 0 mm 5 mps 739 mmHg 82%
    23:00 -1°C° 0 mm 5 mps 739 mmHg 82%

    Day after tomorrow, 14 December, Saturday

    Time Temperature Precipitation Wind Pressure Humidity
    00:00 -1°C° 0 mm 5 mps 739 mmHg 83%
    01:00 -1°C° 0 mm 5 mps 739 mmHg 83%
    02:00 -1°C° 0 mm 5 mps 739 mmHg 84%
    03:00 -1°C° 0 mm 5 mps 739 mmHg 84%
    04:00 -1°C° 0 mm 5 mps 739 mmHg 85%
    05:00 -1°C° 0 mm 5 mps 739 mmHg 85%
    06:00 -1°C° 0 mm 5 mps 739 mmHg 85%
    07:00 -2°C° 0 mm 6 mps 739 mmHg 86%
    08:00 -2°C° 0 mm 6 mps 739 mmHg 86%
    09:00 -2°C° 0 mm 6 mps 739 mmHg 86%
    10:00 -1°C° 0 mm 5 mps 739 mmHg 87%
    11:00 0°C° 0 mm 5 mps 739 mmHg 88%
    12:00 0°C° 0 mm 5 mps 739 mmHg 88%
    13:00 0°C° 0 mm 5 mps 739 mmHg 89%
    14:00 0°C° 0 mm 5 mps 739 mmHg 89%
    15:00 0°C° 0 mm 5 mps 739 mmHg 90%
    16:00 0°C° 0 mm 5 mps 739 mmHg 91%
    17:00 0°C° 0 mm 5 mps 739 mmHg 91%
    18:00 0°C° 0.2 mm 5 mps 739 mmHg 92%
    19:00 0°C° 0.2 mm 5 mps 739 mmHg 93%
    20:00 0°C° 0.2 mm 5 mps 739 mmHg 94%
    21:00 +1°C° 0.3 mm 5 mps 738 mmHg 93%
    22:00 +1°C° 0.3 mm 5 mps 738 mmHg 93%
    23:00 +1°C° 0.3 mm 5 mps 738 mmHg 93%

    15 December, Sunday

    Time Temperature Precipitation Wind Pressure Humidity
    00:00 +1°C° 0.2 mm 5 mps 738 mmHg 93%
    01:00 +1°C° 0.2 mm 5 mps 737 mmHg 94%
    02:00 +1°C° 0.2 mm 4 mps 737 mmHg 94%
    03:00 +1°C° 0.1 mm 4 mps 737 mmHg 94%
    04:00 +3°C° 0.1 mm 4 mps 737 mmHg 94%
    05:00 +3°C° 0.1 mm 4 mps 737 mmHg 94%
    06:00 +3°C° 0.2 mm 4 mps 737 mmHg 92%
    07:00 +2°C° 0.2 mm 5 mps 737 mmHg 89%
    08:00 +2°C° 0.2 mm 5 mps 738 mmHg 87%
    09:00 +2°C° 0 mm 5 mps 738 mmHg 85%
    10:00 +2°C° 0 mm 5 mps 739 mmHg 83%
    11:00 +2°C° 0 mm 5 mps 740 mmHg 81%
    12:00 +2°C° 0 mm 5 mps 740 mmHg 79%
    13:00 +2°C° 0 mm 5 mps 741 mmHg 76%
    14:00 +3°C° 0 mm 4 mps 741 mmHg 74%
    15:00 +1°C° 0 mm 4 mps 741 mmHg 77%
    16:00 0°C° 0 mm 4 mps 741 mmHg 80%
    17:00 0°C° 0 mm 4 mps 742 mmHg 82%
    18:00 0°C° 0 mm 5 mps 741 mmHg 82%
    19:00 0°C° 0 mm 5 mps 741 mmHg 82%
    20:00 +1°C° 0 mm 6 mps 741 mmHg 82%
    21:00 +1°C° 0.2 mm 6 mps 741 mmHg 84%
    22:00 +2°C° 0.2 mm 7 mps 740 mmHg 86%
    23:00 +3°C° 0.2 mm 7 mps 740 mmHg 88%

    16 December, Monday

    Time Temperature Precipitation Wind Pressure Humidity
    00:00 +3°C° 0.3 mm 7 mps 740 mmHg 87%
    01:00 +3°C° 0.3 mm 7 mps 740 mmHg 85%
    02:00 +4°C° 0.3 mm 8 mps 740 mmHg 84%
    03:00 +3°C° 0 mm 7 mps 741 mmHg 79%
    04:00 +2°C° 0 mm 7 mps 742 mmHg 73%
    05:00 0°C° 0 mm 7 mps 742 mmHg 68%
    06:00 -1°C° 0 mm 7 mps 743 mmHg 70%
    07:00 -1°C° 0 mm 6 mps 744 mmHg 72%
    08:00 -2°C° 0 mm 6 mps 745 mmHg 74%
    09:00 -1°C° 0 mm 6 mps 745 mmHg 74%
    10:00 -1°C° 0 mm 6 mps 746 mmHg 74%
    11:00 0°C° 0 mm 5 mps 746 mmHg 73%
    12:00 0°C° 0 mm 5 mps 746 mmHg 70%
    13:00 0°C° 0 mm 5 mps 746 mmHg 68%
    14:00 0°C° 0 mm 5 mps 746 mmHg 65%
    15:00 0°C° 0 mm 5 mps 746 mmHg 67%
    16:00 0°C° 0 mm 5 mps 746 mmHg 68%
    17:00 -1°C° 0 mm 4 mps 747 mmHg 70%
    18:00 -1°C° 0 mm 4 mps 746 mmHg 75%
    19:00 -1°C° 0 mm 4 mps 746 mmHg 80%
    20:00 -1°C° 0 mm 4 mps 746 mmHg 85%
    21:00 -1°C° 0 mm 4 mps 746 mmHg 88%
    22:00 0°C° 0 mm 3 mps 747 mmHg 91%
    23:00 0°C° 0 mm 3 mps 747 mmHg 94%

    17 December, Tuesday

    Time Temperature Precipitation Wind Pressure Humidity
    00:00 +1°C° 0 mm 2 mps 747 mmHg 95%
    01:00 +1°C° 0 mm 2 mps 747 mmHg 95%
    02:00 +1°C° 0 mm 2 mps 747 mmHg 96%
    03:00 +1°C° 0 mm 2 mps 747 mmHg 96%
    04:00 +1°C° 0 mm 2 mps 747 mmHg 95%
    05:00 +1°C° 0 mm 2 mps 747 mmHg 95%
    06:00 +1°C° 0 mm 2 mps 747 mmHg 95%
    07:00 +1°C° 0 mm 2 mps 747 mmHg 94%
    08:00 +2°C° 0 mm 2 mps 747 mmHg 93%
    09:00 +2°C° 0.2 mm 2 mps 747 mmHg 94%
    10:00 +2°C° 0.2 mm 2 mps 747 mmHg 95%
    11:00 +2°C° 0.2 mm 2 mps 747 mmHg 96%
    12:00 +3°C° 0.1 mm 2 mps 747 mmHg 95%
    13:00 +3°C° 0.1 mm 2 mps 746 mmHg 95%
    14:00 +3°C° 0.1 mm 2 mps 746 mmHg 95%
    15:00 +3°C° 0 mm 2 mps 746 mmHg 95%
    16:00 +1°C° 0 mm 3 mps 746 mmHg 95%
    17:00 +1°C° 0 mm 3 mps 746 mmHg 95%
    18:00 +1°C° 0 mm 3 mps 746 mmHg 95%
    19:00 +1°C° 0 mm 3 mps 745 mmHg 95%
    20:00 +1°C° 0 mm 3 mps 745 mmHg 95%
    21:00 +1°C° 0 mm 3 mps 745 mmHg 95%
    22:00 +1°C° 0 mm 3 mps 745 mmHg 94%
    23:00 +1°C° 0 mm 3 mps 745 mmHg 94%
    Show more